sat.trackr.live / text

‹ back to catalog

STARLINK-5495

NORAD 55635 · 2023-021H

PAYLOAD ACTIVE UNKNOWN

§ Identity

Operator
Country
US
Launch date
2023-02-17
Launch site
AFWTR
Launch vehicle
Mass (kg)
RCS (m²)

Purposes: comms

External: N2YO · Heavens-Above · Gunter

§ Orbital elements

Epoch: 2026-05-25T00:18:50.583744Z

Period
96.11 min
Inclination
69.9992°
Eccentricity
0.0002906
Mean motion
14.98336987 rev/d
Perigee alt
570.0 km
Apogee alt
574.1 km
Semi-major
6,950.2 km
B*
6.2496e-5
RAAN
352.0325°
Arg perigee
268.3886°
Mean anomaly
91.6940°
Rev number
18,022

§ Raw data

STARLINK-54951 55635U 23021H   26145.01308546  .00000653  00000+0  62496-4 0  99912 55635  69.9992 352.0325 0002906 268.3886  91.6940 14.98336987180228

JSON: /api/v1/satellites/55635 · /tle

For live sub-satellite position, see the globe view (requires WebGL).

§ Visibility from observer

Set your observer location to see the next 7 days of passes ≥ 10°. The values pass through the URL so the page stays shareable.

No JS? Fill the form by hand. The geolocation button needs JavaScript.